Location: Newark
(52.3735°N, 16.9806°E)
Time: 19:45:27
(UTC+00:00)

ISS - Pass Details

Date: 02 October 2021
Orbit: 417 x 423 km, 51.6° (Epoch: 18 October)

Event Time Altitude Azimuth Distance (km) Brightness Sun altitude
Rises 17:29:05 0° 282° (WNW) 2,366 2.3 -10.3°
Reaches altitude 10° 17:31:16 10° 273° (W) 1,500 0.7 -10.7°
Maximum altitude 17:34:24 37° 205° (SSW) 675 -2.6 -11.1°
Enters shadow 17:37:10 12° 139° (SE) 1,364 -1.6 -11.6°
